Location: *
(2.5500°S, 65.9667°W)
Time: 16:32:39
(UTC+00:00)

A-11 Canister half - Pass Details

Date: 17 April 2024
Orbit: 1525 x 1683 km, 47.3° (Epoch: 21 May)

Event Time Altitude Azimuth Distance (km) Brightness Sun altitude
Exits shadow 09:25:04 18° 268° (W) 3,228 10.0 -14.8°
Maximum altitude 09:30:21 29° 311° (NW) 2,682 9.9 -13.5°
Drops below altitude 10° 09:38:32 10° 7° (N) 3,903 11.3 -11.5°
Sets 09:42:22 0° 18° (NNE) 4,904 12.1 -10.5°
